Simultaneous Nadir Overpasses (SNOs) Predictions

Prediction of SNOs between NOAA-21 and LANDSAT-8 Satellite Orbit:

Table of predicted SNOs for the next 14.0 days since TLE Epoch: 10/12/2024
Index Date (NOAA-21) Time (NOAA-21) Lat,Lon (NOAA-21) SZA (NOAA-21 ) Date (LANDSAT-8) Time (LANDSAT-8) Lat,Lon (LANDSAT-8) SZA (LANDSAT-8 ) Distance(km) Time Diff (sec)
1 10/14/2024 06:20:44 -70.16, -98.82 101.61 10/14/2024 06:21:20 -70.16, -98.80 101.60 1.12 36
2 10/14/2024 07:11:29 70.07, 68.62 78.32 10/14/2024 07:10:47 70.06, 68.69 78.31 3.33 42
3 10/16/2024 21:47:05 70.59,-151.05 79.80 10/16/2024 21:48:15 70.50,-150.06 79.72 37.82 70
4 10/16/2024 22:37:40 -70.15, 16.97 100.63 10/16/2024 22:37:50 -70.12, 17.02 100.66 3.24 10
5 10/16/2024 23:28:24 70.01,-175.52 79.25 10/16/2024 23:27:17 70.01,-175.49 79.25 1.01 67
6 10/19/2024 14:03:53 70.20, -34.65 80.38 10/19/2024 14:04:48 70.17, -34.65 80.35 2.90 55
7 10/19/2024 14:54:34 -70.07, 132.87 99.74 10/19/2024 14:54:18 -70.07, 132.84 99.74 1.36 16
8 10/19/2024 15:45:05 69.25, -58.61 79.46 10/19/2024 15:43:57 69.29, -60.59 79.49 77.75 68
9 10/22/2024 06:20:47 70.16, 81.19 81.29 10/22/2024 06:21:13 70.15, 81.22 81.29 1.38 26
10 10/22/2024 07:11:28 -70.03,-111.28 98.83 10/22/2024 07:10:43 -70.05,-111.29 98.81 2.74 45
11 10/24/2024 21:46:56 -70.28, 29.48 97.67 10/24/2024 21:48:08 -70.24, 29.62 97.71 6.33 72
12 10/24/2024 22:37:39 70.11,-162.94 82.17 10/24/2024 22:37:35 70.12,-162.91 82.19 1.82 4
13 10/24/2024 23:28:19 -69.92, 4.67 98.01 10/24/2024 23:27:06 -69.96, 4.50 97.96 8.17 73



Historial Predications of SNOs between NOAA-21 and LANDSAT-8
